CAPE
342 107 121 122 104 139 233 281 332 313 300 295 44 77 233 179 308 334 272 130 90 24 4 10 14 11 0 0 0 0 0 0 0 0 0 0 0 0 0 0 0 0 0
361 256 169 153 167 139 254 440 393 296 322 303 75 83 103 174 389 297 183 99 1 0 5 7 7 1 0 0 0 0 0 0 0 0 0 0 0 0 0 0 0 0 0
522 268 201 209 206 202 248 396 416 322 328 348 173 69 124 215 307 222 110 27 3 1 2 2 0 0 0 0 0 0 0 0 0 0 0 0 0 0 0 0 0 0 0
396 524 294 275 265 233 278 345 374 476 439 440 433 190 121 217 215 152 91 28 8 8 3 10 0 0 0 0 0 0 0 0 0 0 2 0 0 0 0 0 0 0 0
429 521 596 512 445 418 497 462 413 425 585 624 607 552 343 201 146 100 83 42 28 41 33 31 0 0 0 0 1 1 3 0 0 0 0 0 0 0 0 0 0 0 0
465 470 533 687 664 626 601 566 493 364 595 623 429 433 311 201 165 173 118 76 65 48 57 31 3 8 21 18 19 16 2 1 0 0 0 0 0 0 0 0 0 0 0
461 490 468 450 743 686 627 585 507 437 539 533 438 371 288 256 238 253 233 142 78 55 57 42 31 30 30 36 9 10 6 0 0 0 0 0 0 0 0 0 0 0 0
162 419 494 498 598 710 662 706 714 580 542 308 404 459 408 336 260 277 263 181 61 48 37 40 40 47 64 59 3 3 2 0 0 0 0 0 0 0 0 0 0 0 0
3 25 108 510 541 528 543 617 706 728 592 300 130 196 303 325 142 185 194 301 54 54 42 50 63 64 71 29 9 4 0 0 0 0 0 0 0 0 0 0 3 0 0
0 11 78 151 255 449 476 468 517 668 683 361 272 297 290 350 356 274 265 83 70 35 67 43 49 81 51 4 0 0 0 2 0 0 0 0 0 0 0 5 31 44 0
1 6 41 248 270 294 362 408 499 568 472 532 549 530 531 446 367 296 297 135 87 68 52 38 44 24 1 0 0 0 0 0 0 0 0 0 0 0 2 21 40 42 33
0 32 183 381 488 485 411 353 345 372 362 414 498 600 604 388 352 313 165 110 78 60 75 63 28 1 3 0 0 0 0 0 0 0 0 0 0 0 4 16 26 19 22
3 82 161 240 294 402 474 531 535 596 584 573 565 528 448 314 185 198 84 42 51 46 25 23 22 7 3 0 0 0 0 0 0 0 0 0 0 0 8 6 1 2 0
0 57 203 341 450 545 659 698 735 759 577 482 379 283 186 119 66 44 34 49 35 23 22 7 11 1 4 6 0 0 0 0 0 0 0 0 0 0 6 0 0 0 0
0 11 103 276 446 621 723 744 738 650 523 402 319 257 99 56 55 55 50 51 50 27 12 4 1 0 0 0 0 0 0 0 0 0 0 0 0 0 1 0 0 0 0
0 56 188 290 340 286 249 202 146 121 54 16 38 72 73 60 49 69 43 51 40 1 4 11 0 0 0 0 0 0 0 0 0 0 0 0 0 0 0 0 0 0 0
0 0 0 0 0 0 0 0 0 0 0 0 0 0 2 15 68 42 31 33 11 5 8 0 0 0 0 0 0 0 0 0 0 0 0 0 1 3 0 0 0 0 0
0 0 0 0 0 0 0 0 0 0 0 0 0 0 0 0 10 20 13 50 9 0 0 0 0 0 0 0 0 0 0 0 0 0 0 0 1 6 4 4 0 0 0
0 0 0 0 0 0 0 0 0 0 0 0 0 0 0 0 0 0 0 0 0 0 0 0 0 0 0 0 0 0 0 0 0 0 0 0 0 1 8 3 0 0 0
0 0 0 0 0 0 0 0 0 0 0 0 0 0 0 0 0 0 0 0 0 0 0 0 0 0 0 0 0 0 0 0 0 0 0 0 0 1 9 5 0 0 0
0 0 0 0 0 0 0 0 0 0 0 0 0 0 0 0 0 0 0 0 0 0 0 0 0 0 0 0 0 0 0 0 0 0 0 0 0 0 2 9 3 0 0
0 0 0 0 0 0 0 0 0 0 0 0 0 0 0 0 0 0 0 0 0 0 0 0 0 0 0 0 0 0 0 0 0 0 0 0 0 0 1 2 1 0 3
0 0 0 0 0 0 0 0 0 0 0 0 0 0 0 0 0 0 0 0 0 0 0 0 0 0 0 0 0 0 0 0 1 0 0 0 0 0 0 0 0 0 0
0 0 0 0 0 0 0 0 2 6 0 0 0 0 0 0 0 0 0 0 0 0 0 0 0 0 0 0 0 0 0 0 8 11 1 0 0 0 0 0 0 0 0
0 0 0 0 0 0 0 0 3 0 0 0 0 0 0 0 0 0 0 0 0 0 0 0 0 0 0 0 0 0 0 0 27 3 14 0 0 2 0 0 0 0 0
0 0 0 0 0 0 0 0 0 0 0 0 0 0 0 0 0 0 0 0 0 0 0 0 0 0 0 0 0 0 0 0 0 18 3 8 2 0 0 0 0 0 0
CIN
-106 -222 -209 -209 -229 -196 -124 -81 -23 -52 -50 -62 -186 -134 -72 -73 -24 -25 -33 -29 -44 -41 -35 -27 -12 -2 0 0 0 0 0 0 0 0 0 0 0 0 0 0 0 0 0
-175 -164 -249 -274 -248 -246 -171 -75 -75 -107 -83 -63 -170 -153 -121 -73 -16 -21 -20 -15 -10 0 -11 -49 -41 -6 0 0 0 0 0 0 0 0 0 0 0 0 0 0 0 0 0
-151 -193 -261 -283 -264 -243 -228 -151 -111 -116 -107 -84 -103 -178 -111 -50 -21 -45 -36 -34 -20 -5 -10 -10 0 0 0 0 0 0 0 0 0 0 0 0 0 0 0 0 0 0 0
-192 -174 -248 -279 -303 -297 -258 -209 -174 -112 -97 -66 -61 -102 -133 -70 -65 -44 -18 -25 -21 -23 -13 -19 0 0 0 0 0 0 0 0 0 0 0 0 0 0 0 0 0 0 0
-110 -196 -207 -235 -264 -278 -249 -220 -181 -140 -76 -60 -44 -42 -50 -62 -52 -30 -19 -14 -10 -16 -15 -21 0 0 0 0 0 0 0 0 0 0 0 0 0 0 0 0 0 0 0
-94 -104 -210 -206 -213 -270 -261 -238 -202 -161 -81 -65 -74 -67 -66 -62 -39 -22 -18 -23 -17 -18 -19 -29 -30 -25 -8 -6 -7 0 0 0 0 0 0 0 0 0 0 0 0 0 0
-78 -82 -79 -286 -255 -320 -315 -287 -228 -178 -101 -70 -78 -69 -67 -53 -30 -5 -1 -14 -24 -36 -25 -21 -13 -7 -14 -8 0 -2 -1 0 0 0 0 0 0 0 0 0 0 0 0
-280 -62 -66 -54 -321 -336 -334 -172 -117 -120 -73 -67 -127 -97 -81 -56 -34 -12 -9 -8 -32 -30 -14 -17 -6 -3 0 -7 0 -1 -1 0 0 0 0 0 0 0 0 0 0 0 0
-44 -360 -154 -52 -26 -351 -378 -338 -166 -100 -64 -128 -168 -150 -109 -68 -50 -22 -9 -6 -31 -16 -9 -7 -1 -9 0 -3 -1 -3 0 0 0 -1 0 0 0 0 0 0 0 0 0
0 -137 -128 -93 -45 -29 -324 -315 -266 -116 -90 -34 -23 -22 -12 -11 -10 -12 -13 -41 -17 -12 -32 -17 -1 0 -5 0 0 0 0 0 0 0 0 0 0 0 0 0 0 0 0
-296 -266 -418 -493 -461 -420 -373 -342 -264 -191 -59 -103 -63 -35 -52 -48 -41 -35 -23 -25 -27 -33 -10 -9 -3 -4 -2 0 0 0 0 0 0 0 0 0 0 0 0 0 0 0 0
0 -465 -475 -436 -389 -353 -349 -352 -92 -36 -132 -126 -47 -65 -69 -92 -81 -59 -39 -17 -17 -6 0 -2 -1 -1 -10 0 0 0 0 0 0 0 0 0 0 0 -1 0 0 0 0
-104 -138 -165 -391 -244 -245 -241 -172 -98 -34 -32 -36 -64 -72 -72 -64 -53 -23 -30 -31 -11 -13 -3 -3 -1 -4 0 0 0 0 0 0 0 0 0 0 0 0 0 -3 0 0 0
0 -408 -204 -154 -117 -95 -75 -62 -85 -76 -55 -99 -62 -47 -61 -44 -39 -26 -1 -2 -5 -2 -1 0 -1 -1 -1 -3 0 0 0 0 0 0 0 0 0 0 -2 0 0 0 0
0 -146 -189 -154 -109 -84 -70 -70 -53 -47 -56 -38 -42 -24 -20 -20 -12 -3 -4 0 0 -1 -13 -1 0 0 0 0 0 0 0 0 0 0 0 0 0 0 -2 0 0 0 0
-30 -184 -149 -118 -78 -45 -51 -48 -30 -27 -56 -48 -94 -49 -27 -11 -2 0 0 0 0 -1 0 0 0 -1 0 0 0 0 0 0 0 0 0 0 0 0 0 0 0 0 0
0 0 0 0 0 0 0 0 0 0 0 0 0 0 0 -8 0 0 0 0 -6 0 0 0 0 0 0 0 0 0 0 0 0 0 0 0 -1 0 0 0 0 0 0
0 0 0 0 0 0 0 0 0 0 0 0 0 0 0 0 0 0 0 0 0 0 0 0 0 0 0 0 0 0 0 0 0 0 0 0 -2 -1 -1 0 0 0 0
0 0 0 0 0 0 0 0 0 0 0 0 0 0 0 0 0 0 0 0 0 0 0 0 0 0 0 0 0 0 0 0 0 0 0 0 0 -6 -1 -1 0 0 0
0 0 0 0 0 0 0 0 0 0 0 0 0 0 0 0 0 0 0 0 0 0 0 0 0 0 0 0 0 0 0 0 0 0 0 0 0 -1 -5 -2 0 0 0
0 0 0 0 0 0 0 0 0 0 0 0 0 0 0 0 0 0 0 0 0 0 0 0 0 0 0 0 0 0 0 0 0 0 0 0 0 0 -2 -1 -1 -1 0
0 0 0 0 0 0 0 0 0 0 0 0 0 0 0 0 0 0 0 0 0 0 0 0 0 0 0 0 0 0 0 0 0 0 0 0 0 0 -1 -1 0 0 -5
0 0 0 0 0 0 0 0 0 0 0 0 0 0 0 0 0 0 0 0 0 0 0 0 0 0 0 0 0 0 0 0 0 0 0 0 0 0 0 0 0 0 0
0 0 0 0 0 0 0 0 -1 -1 0 0 0 0 0 0 0 0 0 0 0 0 0 0 0 0 0 0 0 0 0 -1 -1 -1 -2 -1 0 -1 0 0 0 0 0
0 0 0 0 0 0 0 0 0 0 0 0 0 0 0 0 0 0 0 0 0 0 0 0 0 0 0 0 0 0 0 0 0 -2 -1 0 0 -1 0 0 0 0 0
0 0 -1 0 0 0 0 0 0 0 0 0 0 0 0 0 0 0 0 0 0 0 0 0 0 0 0 0 0 0 0 0 0 0 -1 -2 0 0 0 0 0 0 -1
Wind_Speed
12 8 8 7 6 6 6 7 6 0 6 9 nan nan 10 12 12 9 9 11 nan nan nan nan nan nan nan nan nan nan nan nan nan nan nan nan nan nan nan nan nan nan nan
6 6 6 6 7 6 6 2 1 4 6 9 nan nan 8 8 8 10 12 nan nan nan nan nan nan nan nan nan nan nan nan nan nan nan nan nan nan nan nan nan nan nan nan
6 3 4 5 5 6 5 4 3 7 10 11 14 nan 15 13 13 15 18 nan nan nan nan nan nan nan nan nan nan nan nan nan nan nan nan nan nan nan nan nan nan nan nan
5 4 5 4 5 5 5 6 8 10 11 13 14 16 12 14 16 20 nan nan nan nan nan nan nan nan nan nan nan nan nan nan nan nan nan nan nan nan nan nan nan nan nan
5 6 5 4 6 10 11 11 11 12 16 17 12 12 14 15 22 26 nan nan nan nan nan nan nan nan nan nan nan nan nan nan nan nan nan nan nan nan nan nan nan nan nan
2 1 3 6 8 13 14 16 16 15 18 14 15 11 14 21 24 28 32 nan nan nan nan nan nan nan nan nan nan nan nan nan nan nan nan nan nan nan nan nan nan nan nan
9 9 10 13 14 17 21 20 20 20 22 20 18 12 16 24 29 33 35 38 nan nan nan nan nan nan nan nan nan nan nan nan nan nan nan nan nan nan nan nan nan nan nan
7 9 14 18 21 22 24 22 20 23 26 19 14 19 26 26 31 36 37 34 nan nan nan nan nan nan nan nan nan nan nan nan nan nan nan nan nan nan nan nan nan nan nan
nan nan 12 18 23 24 22 21 22 23 24 20 22 25 30 35 36 39 37 37 nan nan nan nan nan nan nan nan nan nan nan nan nan nan nan nan nan nan nan nan nan nan nan
nan nan nan 7 11 13 15 18 23 26 27 27 28 30 33 37 39 41 45 nan nan nan nan nan nan nan nan nan nan nan nan nan nan nan nan nan nan nan nan nan nan nan nan
nan nan nan 15 14 17 20 20 22 25 30 35 34 35 37 40 43 42 40 44 nan nan nan nan nan nan nan nan nan nan nan nan nan nan nan nan nan nan nan nan nan nan nan
nan nan 17 20 22 21 23 25 25 28 31 32 35 35 41 43 45 42 45 44 nan nan nan nan nan nan nan nan nan nan nan nan nan nan nan nan nan nan nan nan nan nan nan
nan nan 23 23 26 27 29 29 29 30 30 33 34 37 40 43 43 42 nan nan nan nan nan nan nan nan nan nan nan nan nan nan nan nan nan nan nan nan nan nan nan nan nan
nan nan 27 25 25 27 27 30 34 37 38 37 37 39 40 40 nan nan nan nan nan nan nan nan nan nan nan nan nan nan nan nan nan nan nan nan nan nan nan nan nan nan nan
nan nan 25 26 27 27 32 34 36 36 37 39 40 42 nan nan nan nan nan nan nan nan nan nan nan nan nan nan nan nan nan nan nan nan nan nan nan nan nan nan nan nan nan
nan nan 35 33 33 31 31 37 38 37 nan nan nan nan nan nan nan nan nan nan nan nan nan nan nan nan nan nan nan nan nan nan nan nan nan nan nan nan nan nan nan nan nan
nan nan nan nan nan nan nan nan nan nan nan nan nan nan nan nan nan nan nan nan nan nan nan nan nan nan nan nan nan nan nan nan nan nan nan nan nan nan nan nan nan nan nan
nan nan nan nan nan nan nan nan nan nan nan nan nan nan nan nan nan nan nan nan nan nan nan nan nan nan nan nan nan nan nan nan nan nan nan nan nan nan nan nan nan nan nan
nan nan nan nan nan nan nan nan nan nan nan nan nan nan nan nan nan nan nan nan nan nan nan nan nan nan nan nan nan nan nan nan nan nan nan nan nan nan nan nan nan nan nan
nan nan nan nan nan nan nan nan nan nan nan nan nan nan nan nan nan nan nan nan nan nan nan nan nan nan nan nan nan nan nan nan nan nan nan nan nan nan nan nan nan nan nan
nan nan nan nan nan nan nan nan nan nan nan nan nan nan nan nan nan nan nan nan nan nan nan nan nan nan nan nan nan nan nan nan nan nan nan nan nan nan nan nan nan nan nan
nan nan nan nan nan nan nan nan nan nan nan nan nan nan nan nan nan nan nan nan nan nan nan nan nan nan nan nan nan nan nan nan nan nan nan nan nan nan nan nan nan nan nan
nan nan nan nan nan nan nan nan nan nan nan nan nan nan nan nan nan nan nan nan nan nan nan nan nan nan nan nan nan nan nan nan nan nan nan nan nan nan nan nan nan nan nan
nan nan nan nan nan nan nan nan nan nan nan nan nan nan nan nan nan nan nan nan nan nan nan nan nan nan nan nan nan nan nan nan nan nan nan nan nan nan nan nan nan nan nan
nan nan nan nan nan nan nan nan nan nan nan nan nan nan nan nan nan nan nan nan nan nan nan nan nan nan nan nan nan nan nan nan nan nan nan nan nan nan nan nan nan nan nan
nan nan nan nan nan nan nan nan nan nan nan nan nan nan nan nan nan nan nan nan nan nan nan nan nan nan nan nan nan nan nan nan nan nan nan nan nan nan nan nan nan nan nan
Wind_Direction
126 115 93 99 100 89 60 47 46 23 240 240 nan nan 267 253 253 241 254 292 nan nan nan nan nan nan nan nan nan nan nan nan nan nan nan nan nan nan nan nan nan nan nan
122 107 84 80 70 54 49 38 33 274 254 259 nan nan 249 241 249 264 284 nan nan nan nan nan nan nan nan nan nan nan nan nan nan nan nan nan nan nan nan nan nan nan nan
57 56 52 68 81 58 29 19 342 299 287 297 289 nan 253 251 262 279 283 nan nan nan nan nan nan nan nan nan nan nan nan nan nan nan nan nan nan nan nan nan nan nan nan
76 33 11 36 32 24 334 329 317 304 286 298 297 300 290 288 284 294 nan nan nan nan nan nan nan nan nan nan nan nan nan nan nan nan nan nan nan nan nan nan nan nan nan
65 87 60 360 318 315 309 310 305 300 281 285 296 290 299 282 279 291 nan nan nan nan nan nan nan nan nan nan nan nan nan nan nan nan nan nan nan nan nan nan nan nan nan
340 317 235 259 289 287 295 300 303 294 281 283 292 289 307 291 295 300 301 nan nan nan nan nan nan nan nan nan nan nan nan nan nan nan nan nan nan nan nan nan nan nan nan
266 262 269 274 271 290 298 304 306 290 283 281 278 279 291 299 310 313 308 306 nan nan nan nan nan nan nan nan nan nan nan nan nan nan nan nan nan nan nan nan nan nan nan
271 275 286 275 272 285 301 307 310 300 298 312 299 318 315 304 312 320 313 305 nan nan nan nan nan nan nan nan nan nan nan nan nan nan nan nan nan nan nan nan nan nan nan
nan nan 284 290 296 290 301 311 308 310 315 313 315 320 318 320 319 316 315 305 nan nan nan nan nan nan nan nan nan nan nan nan nan nan nan nan nan nan nan nan nan nan nan
nan nan nan 299 289 286 288 297 304 324 324 313 316 313 319 322 317 313 318 nan nan nan nan nan nan nan nan nan nan nan nan nan nan nan nan nan nan nan nan nan nan nan nan
nan nan nan 255 269 286 296 304 309 313 308 308 311 312 317 319 315 311 311 308 nan nan nan nan nan nan nan nan nan nan nan nan nan nan nan nan nan nan nan nan nan nan nan
nan nan 262 271 274 280 288 294 297 297 301 302 309 314 314 312 310 310 305 300 nan nan nan nan nan nan nan nan nan nan nan nan nan nan nan nan nan nan nan nan nan nan nan
nan nan 266 266 272 277 281 288 292 297 294 297 302 304 305 307 307 307 nan nan nan nan nan nan nan nan nan nan nan nan nan nan nan nan nan nan nan nan nan nan nan nan nan
nan nan 259 258 267 281 288 290 292 292 291 294 301 302 304 302 nan nan nan nan nan nan nan nan nan nan nan nan nan nan nan nan nan nan nan nan nan nan nan nan nan nan nan
nan nan 258 266 269 273 281 284 286 288 290 295 297 298 nan nan nan nan nan nan nan nan nan nan nan nan nan nan nan nan nan nan nan nan nan nan nan nan nan nan nan nan nan
nan nan 256 260 266 275 281 286 288 289 nan nan nan nan nan nan nan nan nan nan nan nan nan nan nan nan nan nan nan nan nan nan nan nan nan nan nan nan nan nan nan nan nan
nan nan nan nan nan nan nan nan nan nan nan nan nan nan nan nan nan nan nan nan nan nan nan nan nan nan nan nan nan nan nan nan nan nan nan nan nan nan nan nan nan nan nan
nan nan nan nan nan nan nan nan nan nan nan nan nan nan nan nan nan nan nan nan nan nan nan nan nan nan nan nan nan nan nan nan nan nan nan nan nan nan nan nan nan nan nan
nan nan nan nan nan nan nan nan nan nan nan nan nan nan nan nan nan nan nan nan nan nan nan nan nan nan nan nan nan nan nan nan nan nan nan nan nan nan nan nan nan nan nan
nan nan nan nan nan nan nan nan nan nan nan nan nan nan nan nan nan nan nan nan nan nan nan nan nan nan nan nan nan nan nan nan nan nan nan nan nan nan nan nan nan nan nan
nan nan nan nan nan nan nan nan nan nan nan nan nan nan nan nan nan nan nan nan nan nan nan nan nan nan nan nan nan nan nan nan nan nan nan nan nan nan nan nan nan nan nan
nan nan nan nan nan nan nan nan nan nan nan nan nan nan nan nan nan nan nan nan nan nan nan nan nan nan nan nan nan nan nan nan nan nan nan nan nan nan nan nan nan nan nan
nan nan nan nan nan nan nan nan nan nan nan nan nan nan nan nan nan nan nan nan nan nan nan nan nan nan nan nan nan nan nan nan nan nan nan nan nan nan nan nan nan nan nan
nan nan nan nan nan nan nan nan nan nan nan nan nan nan nan nan nan nan nan nan nan nan nan nan nan nan nan nan nan nan nan nan nan nan nan nan nan nan nan nan nan nan nan
nan nan nan nan nan nan nan nan nan nan nan nan nan nan nan nan nan nan nan nan nan nan nan nan nan nan nan nan nan nan nan nan nan nan nan nan nan nan nan nan nan nan nan
nan nan nan nan nan nan nan nan nan nan nan nan nan nan nan nan nan nan nan nan nan nan nan nan nan nan nan nan nan nan nan nan nan nan nan nan nan nan nan nan nan nan nan